User: anonymous   Login
Location: Unspecified
(0.0000°N, 0.0000°E)
Time: 10:16:38
(UTC+00:00)
Language:

Gonets-D1 - Orbit

View from above orbital plane
View from above orbital plane
View from above satellite
View from above satellite

Ground track
Ground track

The orbit data is extracted from the following two-line orbital elements,

1 24726U 97006B   17080.92535457 +.00000030 +00000-0 +10883-3 0  9995
2 24726 082.5972 246.5925 0005662 164.4497 195.6769 12.61335981925168
Epoch (UTC): 21 March 2017 22:12:30
Eccentricity: 0.0005662
inclination: 82.5972°
perigee height: 1413 km
apogee height: 1422 km
right ascension of ascending node: 246.5925°
argument of perigee: 164.4497°
revolutions per day: 12.61335981
mean anomaly at epoch: 195.6769°
orbit number at epoch: 92516

The dashed part of the orbit path shows where the satellite is in the earth's shadow,  

DLR